TimeEST,TemperatureF,Dew PointF,Humidity,Sea Level PressureIn,VisibilityMPH,Wind Direction,Wind SpeedMPH,Gust SpeedMPH,PrecipitationIn,Events,Conditions,WindDirDegrees,DateUTC
12:53 AM,55.9,48.0,75,30.02,10.0,South,4.6,-,N/A,,Mostly Cloudy,190,2013-11-07 05:53:00
1:53 AM,55.9,48.9,77,29.99,10.0,SSW,8.1,-,N/A,,Overcast,200,2013-11-07 06:53:00
2:53 AM,55.9,50.0,80,29.96,10.0,South,9.2,-,N/A,,Overcast,190,2013-11-07 07:53:00
3:53 AM,57.0,51.1,81,29.93,10.0,SSW,9.2,-,N/A,,Overcast,210,2013-11-07 08:53:00
4:53 AM,57.0,51.1,81,29.90,10.0,South,6.9,-,N/A,,Overcast,190,2013-11-07 09:53:00
5:53 AM,57.0,51.1,81,29.88,10.0,Calm,Calm,-,N/A,,Overcast,0,2013-11-07 10:53:00
6:53 AM,55.9,52.0,87,29.88,10.0,WSW,3.5,-,N/A,,Mostly Cloudy,250,2013-11-07 11:53:00
7:53 AM,55.9,54.0,93,29.89,10.0,West,5.8,-,0.00,,Overcast,280,2013-11-07 12:53:00
8:04 AM,55.4,53.6,94,29.89,2.0,West,8.1,-,0.00,Rain,Light Rain,270,2013-11-07 13:04:00
8:09 AM,55.4,55.4,100,29.89,3.0,WSW,6.9,-,0.00,Rain,Light Rain,250,2013-11-07 13:09:00
8:53 AM,57.0,55.0,93,29.87,10.0,WSW,5.8,-,0.01,,Overcast,250,2013-11-07 13:53:00
9:53 AM,57.0,55.0,93,29.88,8.0,WNW,5.8,-,0.00,,Overcast,300,2013-11-07 14:53:00
10:21 AM,57.2,55.4,94,29.87,10.0,West,9.2,-,N/A,,Overcast,270,2013-11-07 15:21:00
10:40 AM,57.2,53.6,88,29.87,9.0,West,10.4,-,N/A,,Overcast,270,2013-11-07 15:40:00
10:53 AM,57.0,54.0,89,29.86,7.0,West,9.2,-,0.01,Rain,Light Rain,280,2013-11-07 15:53:00
11:03 AM,57.2,53.6,88,29.87,7.0,West,10.4,-,0.00,Rain,Light Rain,280,2013-11-07 16:03:00
11:53 AM,55.0,53.1,93,29.87,7.0,West,12.7,-,0.01,Rain,Light Rain,280,2013-11-07 16:53:00
12:13 PM,55.4,51.8,88,29.87,5.0,West,11.5,18.4,N/A,Rain,Rain,280,2013-11-07 17:13:00
12:29 PM,53.6,51.8,94,29.87,6.0,WNW,15.0,23.0,N/A,Rain,Light Rain,290,2013-11-07 17:29:00
12:36 PM,53.6,51.8,94,29.87,8.0,WNW,15.0,23.0,N/A,Rain,Light Rain,290,2013-11-07 17:36:00
12:53 PM,54.0,51.1,90,29.87,8.0,WNW,12.7,-,N/A,Rain,Light Rain,290,2013-11-07 17:53:00
1:53 PM,53.1,48.9,86,29.88,10.0,WNW,16.1,-,0.01,,Overcast,300,2013-11-07 18:53:00
2:53 PM,52.0,43.0,71,29.89,10.0,WNW,17.3,24.2,0.01,,Partly Cloudy,300,2013-11-07 19:53:00
3:53 PM,52.0,37.9,59,29.91,10.0,WNW,13.8,-,0.01,,Clear,300,2013-11-07 20:53:00
4:53 PM,48.9,37.0,64,29.92,10.0,NW,12.7,-,0.01,,Partly Cloudy,310,2013-11-07 21:53:00
5:53 PM,48.0,35.1,61,29.95,10.0,NW,15.0,23.0,0.01,,Partly Cloudy,310,2013-11-07 22:53:00
6:53 PM,46.0,30.0,54,29.98,10.0,NW,10.4,-,N/A,,Clear,320,2013-11-07 23:53:00
7:53 PM,46.0,30.9,56,29.99,10.0,NW,4.6,-,N/A,,Overcast,310,2013-11-08 00:53:00
8:53 PM,46.9,33.1,59,30.01,10.0,WNW,17.3,24.2,0.01,,Overcast,300,2013-11-08 01:53:00
9:53 PM,44.1,30.0,58,30.01,10.0,WNW,16.1,-,N/A,,Overcast,300,2013-11-08 02:53:00
10:53 PM,42.1,24.1,49,30.02,10.0,NW,17.3,28.8,N/A,,Overcast,310,2013-11-08 03:53:00
11:53 PM,42.1,24.1,49,30.03,10.0,WNW,12.7,-,N/A,,Overcast,300,2013-11-08 04:53:00